owner,sensor,date,latitude,longitude,vertical_datum,wind_speed,wind_to_direction,wind_speed_of_gust,qcFlag 
FIT,ioos:station:wmo:SIPF1:1,2017-10-03T14:30:00Z,27.8620,-80.4450,1.0,12.8,57.0,99.0,'11111222,11111222,11144222' 
FIT,ioos:station:wmo:SIPF1:1,2017-10-03T14:45:00Z,27.8620,-80.4450,1.0,13.6,54.0,99.0,'11111222,11111222,11144222' 
FIT,ioos:station:wmo:SIPF1:1,2017-10-03T15:00:00Z,27.8620,-80.4450,1.0,14.2,68.0,99.0,'11111222,11111222,11144222' 
FIT,ioos:station:wmo:SIPF1:1,2017-10-03T15:15:00Z,27.8620,-80.4450,1.0,14.0,57.0,99.0,'11111222,11111222,11144222' 
FIT,ioos:station:wmo:SIPF1:1,2017-10-03T15:30:00Z,27.8620,-80.4450,1.0,14.5,62.0,99.0,'11111222,11111222,11144222' 
FIT,ioos:station:wmo:SIPF1:1,2017-10-03T15:45:00Z,27.8620,-80.4450,1.0,13.6,61.0,99.0,'11111222,11111222,11144222' 
FIT,ioos:station:wmo:SIPF1:1,2017-10-03T16:00:00Z,27.8620,-80.4450,1.0,13.4,59.0,99.0,'11111222,11111222,11144222' 
FIT,ioos:station:wmo:SIPF1:1,2017-10-03T16:15:00Z,27.8620,-80.4450,1.0,12.9,58.0,99.0,'11111222,11111222,11144222' 
FIT,ioos:station:wmo:SIPF1:1,2017-10-03T16:30:00Z,27.8620,-80.4450,1.0,15.4,69.0,99.0,'11111222,11111222,11144222' 
FIT,ioos:station:wmo:SIPF1:1,2017-10-03T16:45:00Z,27.8620,-80.4450,1.0,12.5,68.0,99.0,'11111222,11111222,11144222' 
FIT,ioos:station:wmo:SIPF1:1,2017-10-03T17:00:00Z,27.8620,-80.4450,1.0,14.3,65.0,99.0,'11111222,11111222,11144222' 
FIT,ioos:station:wmo:SIPF1:1,2017-10-03T17:15:00Z,27.8620,-80.4450,1.0,12.3,61.0,99.0,'11111222,11111222,11144222' 
FIT,ioos:station:wmo:SIPF1:1,2017-10-03T17:30:00Z,27.8620,-80.4450,1.0,13.6,68.0,99.0,'11111222,11111222,11144222' 
FIT,ioos:station:wmo:SIPF1:1,2017-10-03T17:45:00Z,27.8620,-80.4450,1.0,13.1,59.0,99.0,'11111222,11111222,11144222' 
FIT,ioos:station:wmo:SIPF1:1,2017-10-03T18:00:00Z,27.8620,-80.4450,1.0,12.8,62.0,99.0,'11111222,11111222,11144222' 
FIT,ioos:station:wmo:SIPF1:1,2017-10-03T18:15:00Z,27.8620,-80.4450,1.0,13.6,71.0,99.0,'11111222,11111222,11144222' 
FIT,ioos:station:wmo:SIPF1:1,2017-10-03T18:30:00Z,27.8620,-80.4450,1.0,12.6,64.0,99.0,'11111222,11111222,11144222' 
FIT,ioos:station:wmo:SIPF1:1,2017-10-03T18:45:00Z,27.8620,-80.4450,1.0,12.2,59.0,99.0,'11111222,11111222,11144222' 
FIT,ioos:station:wmo:SIPF1:1,2017-10-03T19:00:00Z,27.8620,-80.4450,1.0,13.8,66.0,99.0,'11111222,11111222,11144222' 
FIT,ioos:station:wmo:SIPF1:1,2017-10-03T19:15:00Z,27.8620,-80.4450,1.0,13.3,65.0,99.0,'11111222,11111222,11144222' 
FIT,ioos:station:wmo:SIPF1:1,2017-10-03T19:30:00Z,27.8620,-80.4450,1.0,13.8,64.0,99.0,'11111222,11111222,11144222' 
FIT,ioos:station:wmo:SIPF1:1,2017-10-03T19:45:00Z,27.8620,-80.4450,1.0,14.0,61.0,99.0,'11111222,11111222,11144222' 
FIT,ioos:station:wmo:SIPF1:1,2017-10-03T20:00:00Z,27.8620,-80.4450,1.0,13.9,68.0,99.0,'11111222,11111222,11144222' 
FIT,ioos:station:wmo:SIPF1:1,2017-10-03T20:15:00Z,27.8620,-80.4450,1.0,13.1,58.0,99.0,'11111222,11111222,11144222' 
FIT,ioos:station:wmo:SIPF1:1,2017-10-03T20:30:00Z,27.8620,-80.4450,1.0,13.0,56.0,99.0,'11111222,11111222,11144222' 
FIT,ioos:station:wmo:SIPF1:1,2017-10-03T20:45:00Z,27.8620,-80.4450,1.0,13.6,54.0,99.0,'11111222,11111222,11144222' 
FIT,ioos:station:wmo:SIPF1:1,2017-10-03T21:00:00Z,27.8620,-80.4450,1.0,13.5,53.0,99.0,'11111222,11111222,11144222' 
FIT,ioos:station:wmo:SIPF1:1,2017-10-03T21:15:00Z,27.8620,-80.4450,1.0,14.8,52.0,99.0,'11111222,11111222,11144222' 
FIT,ioos:station:wmo:SIPF1:1,2017-10-03T21:30:00Z,27.8620,-80.4450,1.0,12.8,60.0,99.0,'11111222,11111222,11144222' 
FIT,ioos:station:wmo:SIPF1:1,2017-10-03T21:45:00Z,27.8620,-80.4450,1.0,13.3,80.0,99.0,'11111222,11111222,11144222' 
FIT,ioos:station:wmo:SIPF1:1,2017-10-03T22:00:00Z,27.8620,-80.4450,1.0,13.2,71.0,99.0,'11111222,11111222,11144222' 
FIT,ioos:station:wmo:SIPF1:1,2017-10-03T22:15:00Z,27.8620,-80.4450,1.0,13.8,61.0,99.0,'11111222,11111222,11144222' 
FIT,ioos:station:wmo:SIPF1:1,2017-10-03T22:30:00Z,27.8620,-80.4450,1.0,14.0,63.0,99.0,'11111222,11111222,11144222' 
FIT,ioos:station:wmo:SIPF1:1,2017-10-03T22:45:00Z,27.8620,-80.4450,1.0,14.0,60.0,99.0,'11111222,11111222,11144222' 
FIT,ioos:station:wmo:SIPF1:1,2017-10-03T23:00:00Z,27.8620,-80.4450,1.0,13.6,62.0,99.0,'11111222,11111222,11144222' 
FIT,ioos:station:wmo:SIPF1:1,2017-10-03T23:15:00Z,27.8620,-80.4450,1.0,13.6,61.0,99.0,'11111222,11111222,11144222' 
FIT,ioos:station:wmo:SIPF1:1,2017-10-03T23:30:00Z,27.8620,-80.4450,1.0,14.2,60.0,99.0,'11111222,11111222,11144222' 
FIT,ioos:station:wmo:SIPF1:1,2017-10-03T23:45:00Z,27.8620,-80.4450,1.0,13.4,54.0,99.0,'11111222,11111222,11144222' 
FIT,ioos:station:wmo:SIPF1:1,2017-10-04T00:00:00Z,27.8620,-80.4450,1.0,13.7,55.0,99.0,'11111222,11111222,11144222' 
FIT,ioos:station:wmo:SIPF1:1,2017-10-04T00:15:00Z,27.8620,-80.4450,1.0,13.8,62.0,99.0,'11111222,11111222,11144222' 
FIT,ioos:station:wmo:SIPF1:1,2017-10-04T00:30:00Z,27.8620,-80.4450,1.0,14.3,57.0,99.0,'11111222,11111222,11144222' 
FIT,ioos:station:wmo:SIPF1:1,2017-10-04T00:45:00Z,27.8620,-80.4450,1.0,14.5,58.0,99.0,'11111222,11111222,11144222' 
FIT,ioos:station:wmo:SIPF1:1,2017-10-04T01:00:00Z,27.8620,-80.4450,1.0,14.5,65.0,99.0,'11111222,11111222,11144222' 
FIT,ioos:station:wmo:SIPF1:1,2017-10-04T01:15:00Z,27.8620,-80.4450,1.0,13.5,67.0,99.0,'11111222,11111222,11144222' 
FIT,ioos:station:wmo:SIPF1:1,2017-10-04T01:30:00Z,27.8620,-80.4450,1.0,13.1,60.0,99.0,'11111222,11111222,11144222' 
FIT,ioos:station:wmo:SIPF1:1,2017-10-04T01:45:00Z,27.8620,-80.4450,1.0,12.4,61.0,99.0,'11111222,11111222,11144222' 
FIT,ioos:station:wmo:SIPF1:1,2017-10-04T02:00:00Z,27.8620,-80.4450,1.0,13.9,62.0,99.0,'11111222,11111222,11144222' 
FIT,ioos:station:wmo:SIPF1:1,2017-10-04T02:15:00Z,27.8620,-80.4450,1.0,14.4,63.0,99.0,'11111222,11111222,11144222' 
FIT,ioos:station:wmo:SIPF1:1,2017-10-04T02:30:00Z,27.8620,-80.4450,1.0,14.4,62.0,99.0,'11111222,11111222,11144222' 
FIT,ioos:station:wmo:SIPF1:1,2017-10-04T02:45:00Z,27.8620,-80.4450,1.0,13.8,66.0,99.0,'11111222,11111222,11144222' 
FIT,ioos:station:wmo:SIPF1:1,2017-10-04T03:00:00Z,27.8620,-80.4450,1.0,14.2,63.0,99.0,'11111222,11111222,11144222' 
FIT,ioos:station:wmo:SIPF1:1,2017-10-04T03:15:00Z,27.8620,-80.4450,1.0,14.3,62.0,99.0,'11111222,11111222,11144222' 
FIT,ioos:station:wmo:SIPF1:1,2017-10-04T03:30:00Z,27.8620,-80.4450,1.0,14.6,62.0,99.0,'11111222,11111222,11144222' 
FIT,ioos:station:wmo:SIPF1:1,2017-10-04T03:45:00Z,27.8620,-80.4450,1.0,13.6,67.0,99.0,'11111222,11111222,11144222' 
FIT,ioos:station:wmo:SIPF1:1,2017-10-04T04:00:00Z,27.8620,-80.4450,1.0,14.0,58.0,99.0,'11111222,11111222,11144222' 
FIT,ioos:station:wmo:SIPF1:1,2017-10-04T04:15:00Z,27.8620,-80.4450,1.0,13.1,60.0,99.0,'11111222,11111222,11144222' 
FIT,ioos:station:wmo:SIPF1:1,2017-10-04T04:30:00Z,27.8620,-80.4450,1.0,13.7,62.0,99.0,'11111222,11111222,11144222' 
FIT,ioos:station:wmo:SIPF1:1,2017-10-04T04:45:00Z,27.8620,-80.4450,1.0,13.3,60.0,99.0,'11111222,11111222,11144222' 
FIT,ioos:station:wmo:SIPF1:1,2017-10-04T05:00:00Z,27.8620,-80.4450,1.0,13.6,60.0,99.0,'11111222,11111222,11144222' 
FIT,ioos:station:wmo:SIPF1:1,2017-10-04T05:15:00Z,27.8620,-80.4450,1.0,13.3,58.0,99.0,'11111222,11111222,11144222' 
FIT,ioos:station:wmo:SIPF1:1,2017-10-04T05:30:00Z,27.8620,-80.4450,1.0,13.2,57.0,99.0,'11111222,11111222,11144222' 
FIT,ioos:station:wmo:SIPF1:1,2017-10-04T05:45:00Z,27.8620,-80.4450,1.0,12.5,57.0,99.0,'11111222,11111222,11144222' 
FIT,ioos:station:wmo:SIPF1:1,2017-10-04T06:00:00Z,27.8620,-80.4450,1.0,13.2,61.0,99.0,'11111222,11111222,11144222' 
FIT,ioos:station:wmo:SIPF1:1,2017-10-04T06:15:00Z,27.8620,-80.4450,1.0,13.4,60.0,99.0,'11111222,11111222,11144222' 
FIT,ioos:station:wmo:SIPF1:1,2017-10-04T06:30:00Z,27.8620,-80.4450,1.0,12.8,60.0,99.0,'11111222,11111222,11144222' 
FIT,ioos:station:wmo:SIPF1:1,2017-10-04T06:45:00Z,27.8620,-80.4450,1.0,12.8,64.0,99.0,'11111222,11111222,11144222' 
FIT,ioos:station:wmo:SIPF1:1,2017-10-04T07:00:00Z,27.8620,-80.4450,1.0,13.0,62.0,99.0,'11111222,11111222,11144222' 
FIT,ioos:station:wmo:SIPF1:1,2017-10-04T07:15:00Z,27.8620,-80.4450,1.0,14.2,62.0,99.0,'11111222,11111222,11144222' 
FIT,ioos:station:wmo:SIPF1:1,2017-10-04T07:30:00Z,27.8620,-80.4450,1.0,13.2,61.0,99.0,'11111222,11111222,11144222' 
FIT,ioos:station:wmo:SIPF1:1,2017-10-04T07:45:00Z,27.8620,-80.4450,1.0,14.0,63.0,99.0,'11111222,11111222,11144222' 
FIT,ioos:station:wmo:SIPF1:1,2017-10-04T08:00:00Z,27.8620,-80.4450,1.0,12.8,67.0,99.0,'11111222,11111222,11144222' 
FIT,ioos:station:wmo:SIPF1:1,2017-10-04T08:15:00Z,27.8620,-80.4450,1.0,13.8,71.0,99.0,'11111222,11111222,11144222' 
FIT,ioos:station:wmo:SIPF1:1,2017-10-04T08:30:00Z,27.8620,-80.4450,1.0,13.2,69.0,99.0,'11111222,11111222,11144222' 
FIT,ioos:station:wmo:SIPF1:1,2017-10-04T08:45:00Z,27.8620,-80.4450,1.0,12.2,70.0,99.0,'11111222,11111222,11144222' 
FIT,ioos:station:wmo:SIPF1:1,2017-10-04T09:00:00Z,27.8620,-80.4450,1.0,11.9,72.0,99.0,'11111222,11111222,11144222' 
FIT,ioos:station:wmo:SIPF1:1,2017-10-04T09:15:00Z,27.8620,-80.4450,1.0,13.0,71.0,99.0,'11111222,11111222,11144222' 
FIT,ioos:station:wmo:SIPF1:1,2017-10-04T09:30:00Z,27.8620,-80.4450,1.0,12.4,70.0,99.0,'11111222,11111222,11144222' 
FIT,ioos:station:wmo:SIPF1:1,2017-10-04T09:45:00Z,27.8620,-80.4450,1.0,12.6,64.0,99.0,'11111222,11111222,11144222' 
FIT,ioos:station:wmo:SIPF1:1,2017-10-04T10:00:00Z,27.8620,-80.4450,1.0,12.8,65.0,99.0,'11111222,11111222,11144222' 
FIT,ioos:station:wmo:SIPF1:1,2017-10-04T10:15:00Z,27.8620,-80.4450,1.0,12.7,66.0,99.0,'11111222,11111222,11144222' 
FIT,ioos:station:wmo:SIPF1:1,2017-10-04T10:30:00Z,27.8620,-80.4450,1.0,12.0,65.0,99.0,'11111222,11111222,11144222' 
FIT,ioos:station:wmo:SIPF1:1,2017-10-04T10:45:00Z,27.8620,-80.4450,1.0,11.9,66.0,99.0,'11111222,11111222,11144222' 
FIT,ioos:station:wmo:SIPF1:1,2017-10-04T11:00:00Z,27.8620,-80.4450,1.0,11.7,63.0,99.0,'11111222,11111222,11144222' 
FIT,ioos:station:wmo:SIPF1:1,2017-10-04T11:15:00Z,27.8620,-80.4450,1.0,11.2,61.0,99.0,'11111222,11111222,11144222' 
FIT,ioos:station:wmo:SIPF1:1,2017-10-04T11:30:00Z,27.8620,-80.4450,1.0,11.4,63.0,99.0,'11111222,11111222,11144222' 
FIT,ioos:station:wmo:SIPF1:1,2017-10-04T11:45:00Z,27.8620,-80.4450,1.0,11.7,68.0,99.0,'11111222,11111222,11144222' 
FIT,ioos:station:wmo:SIPF1:1,2017-10-04T12:00:00Z,27.8620,-80.4450,1.0,11.4,68.0,99.0,'11111222,11111222,11144222' 
FIT,ioos:station:wmo:SIPF1:1,2017-10-04T12:15:00Z,27.8620,-80.4450,1.0,11.1,65.0,99.0,'11111222,11111222,11144222' 
FIT,ioos:station:wmo:SIPF1:1,2017-10-04T12:30:00Z,27.8620,-80.4450,1.0,10.8,65.0,99.0,'11111222,11111222,11144222' 
FIT,ioos:station:wmo:SIPF1:1,2017-10-04T12:45:00Z,27.8620,-80.4450,1.0,11.8,63.0,99.0,'11111222,11111222,11144222' 
FIT,ioos:station:wmo:SIPF1:1,2017-10-04T13:00:00Z,27.8620,-80.4450,1.0,11.9,54.0,99.0,'11111222,11111222,11144222' 
FIT,ioos:station:wmo:SIPF1:1,2017-10-04T13:15:00Z,27.8620,-80.4450,1.0,10.9,51.0,99.0,'11111222,11111222,11144222' 
FIT,ioos:station:wmo:SIPF1:1,2017-10-04T13:30:00Z,27.8620,-80.4450,1.0,9.6,55.0,99.0,'11111222,11111222,11144222' 
FIT,ioos:station:wmo:SIPF1:1,2017-10-04T13:45:00Z,27.8620,-80.4450,1.0,10.4,67.0,99.0,'11111222,11111222,11144222' 
FIT,ioos:station:wmo:SIPF1:1,2017-10-04T14:00:00Z,27.8620,-80.4450,1.0,12.2,63.0,99.0,'11111222,11111222,11144222' 
FIT,ioos:station:wmo:SIPF1:1,2017-10-04T14:15:00Z,27.8620,-80.4450,1.0,11.9,59.0,99.0,'11111222,11111222,11144222' 
FIT,ioos:station:wmo:SIPF1:1,2017-10-04T14:30:00Z,27.8620,-80.4450,1.0,10.4,60.0,99.0,'11111222,11111222,11144222' 
FIT,ioos:station:wmo:SIPF1:1,2017-10-04T14:45:00Z,27.8620,-80.4450,1.0,9.9,63.0,99.0,'11111222,11111222,11144222' 
FIT,ioos:station:wmo:SIPF1:1,2017-10-04T15:00:00Z,27.8620,-80.4450,1.0,11.6,63.0,99.0,'11111222,11111222,11144222' 
FIT,ioos:station:wmo:SIPF1:1,2017-10-04T15:15:00Z,27.8620,-80.4450,1.0,10.2,55.0,99.0,'11111222,11111222,11144222' 
FIT,ioos:station:wmo:SIPF1:1,2017-10-04T15:30:00Z,27.8620,-80.4450,1.0,9.3,62.0,99.0,'11111222,11111222,11144222' 
FIT,ioos:station:wmo:SIPF1:1,2017-10-04T15:45:00Z,27.8620,-80.4450,1.0,9.7,62.0,99.0,'11111222,11111222,11144222' 
FIT,ioos:station:wmo:SIPF1:1,2017-10-04T16:00:00Z,27.8620,-80.4450,1.0,11.3,59.0,99.0,'11111222,11111222,11144222' 
FIT,ioos:station:wmo:SIPF1:1,2017-10-04T16:15:00Z,27.8620,-80.4450,1.0,11.4,58.0,99.0,'11111222,11111222,11144222' 
FIT,ioos:station:wmo:SIPF1:1,2017-10-04T16:30:00Z,27.8620,-80.4450,1.0,12.1,60.0,99.0,'11111222,11111222,11144222' 
FIT,ioos:station:wmo:SIPF1:1,2017-10-04T16:45:00Z,27.8620,-80.4450,1.0,13.5,57.0,99.0,'11111222,11111222,11144222' 
FIT,ioos:station:wmo:SIPF1:1,2017-10-04T17:00:00Z,27.8620,-80.4450,1.0,12.8,50.0,99.0,'11111222,11111222,11144222' 
FIT,ioos:station:wmo:SIPF1:1,2017-10-04T17:15:00Z,27.8620,-80.4450,1.0,11.4,52.0,99.0,'11111222,11111222,11144222' 
FIT,ioos:station:wmo:SIPF1:1,2017-10-04T17:30:00Z,27.8620,-80.4450,1.0,13.0,61.0,99.0,'11111222,11111222,11144222' 
FIT,ioos:station:wmo:SIPF1:1,2017-10-04T17:45:00Z,27.8620,-80.4450,1.0,12.1,59.0,99.0,'11111222,11111222,11144222' 
FIT,ioos:station:wmo:SIPF1:1,2017-10-04T18:00:00Z,27.8620,-80.4450,1.0,12.8,63.0,99.0,'11111222,11111222,11144222' 
FIT,ioos:station:wmo:SIPF1:1,2017-10-04T18:15:00Z,27.8620,-80.4450,1.0,9.3,69.0,99.0,'11111222,11111222,11144222' 
FIT,ioos:station:wmo:SIPF1:1,2017-10-04T18:30:00Z,27.8620,-80.4450,1.0,8.7,63.0,99.0,'11111222,11111222,11144222' 
FIT,ioos:station:wmo:SIPF1:1,2017-10-04T18:45:00Z,27.8620,-80.4450,1.0,12.4,59.0,99.0,'11111222,11111222,11144222' 
FIT,ioos:station:wmo:SIPF1:1,2017-10-04T19:00:00Z,27.8620,-80.4450,1.0,13.2,62.0,99.0,'11111222,11111222,11144222' 
FIT,ioos:station:wmo:SIPF1:1,2017-10-04T19:15:00Z,27.8620,-80.4450,1.0,12.9,53.0,99.0,'11111222,11111222,11144222' 
FIT,ioos:station:wmo:SIPF1:1,2017-10-04T19:30:00Z,27.8620,-80.4450,1.0,13.1,55.0,99.0,'11111222,11111222,11144222' 
FIT,ioos:station:wmo:SIPF1:1,2017-10-04T19:45:00Z,27.8620,-80.4450,1.0,12.0,54.0,99.0,'11111222,11111222,11144222' 
FIT,ioos:station:wmo:SIPF1:1,2017-10-04T20:00:00Z,27.8620,-80.4450,1.0,11.7,62.0,99.0,'11111222,11111222,11144222' 
FIT,ioos:station:wmo:SIPF1:1,2017-10-04T20:15:00Z,27.8620,-80.4450,1.0,12.7,66.0,99.0,'11111222,11111222,11144222' 
FIT,ioos:station:wmo:SIPF1:1,2017-10-04T20:30:00Z,27.8620,-80.4450,1.0,13.1,65.0,99.0,'11111222,11111222,11144222' 
FIT,ioos:station:wmo:SIPF1:1,2017-10-04T20:45:00Z,27.8620,-80.4450,1.0,12.8,66.0,99.0,'11111222,11111222,11144222' 
FIT,ioos:station:wmo:SIPF1:1,2017-10-04T21:00:00Z,27.8620,-80.4450,1.0,12.7,65.0,99.0,'11111222,11111222,11144222' 
FIT,ioos:station:wmo:SIPF1:1,2017-10-04T21:15:00Z,27.8620,-80.4450,1.0,12.8,65.0,99.0,'11111222,11111222,11144222' 
FIT,ioos:station:wmo:SIPF1:1,2017-10-04T21:30:00Z,27.8620,-80.4450,1.0,13.0,59.0,99.0,'11111222,11111222,11144222' 
FIT,ioos:station:wmo:SIPF1:1,2017-10-04T21:45:00Z,27.8620,-80.4450,1.0,13.0,57.0,99.0,'11111222,11111222,11144222' 
FIT,ioos:station:wmo:SIPF1:1,2017-10-04T22:00:00Z,27.8620,-80.4450,1.0,11.1,59.0,99.0,'11111222,11111222,11144222' 
FIT,ioos:station:wmo:SIPF1:1,2017-10-04T22:15:00Z,27.8620,-80.4450,1.0,11.1,56.0,99.0,'11111222,11111222,11144222' 
FIT,ioos:station:wmo:SIPF1:1,2017-10-04T22:30:00Z,27.8620,-80.4450,1.0,13.3,55.0,99.0,'11111222,11111222,11144222' 
FIT,ioos:station:wmo:SIPF1:1,2017-10-04T22:45:00Z,27.8620,-80.4450,1.0,12.2,61.0,99.0,'11111222,11111222,11144222' 
FIT,ioos:station:wmo:SIPF1:1,2017-10-04T23:00:00Z,27.8620,-80.4450,1.0,12.9,57.0,99.0,'11111222,11111222,11144222' 
FIT,ioos:station:wmo:SIPF1:1,2017-10-04T23:15:00Z,27.8620,-80.4450,1.0,14.2,66.0,99.0,'11111222,11111222,11144222' 
FIT,ioos:station:wmo:SIPF1:1,2017-10-04T23:30:00Z,27.8620,-80.4450,1.0,11.6,70.0,99.0,'11111222,11111222,11144222' 
FIT,ioos:station:wmo:SIPF1:1,2017-10-04T23:45:00Z,27.8620,-80.4450,1.0,11.4,61.0,99.0,'11111222,11111222,11144222' 
FIT,ioos:station:wmo:SIPF1:1,2017-10-05T00:00:00Z,27.8620,-80.4450,1.0,12.9,73.0,99.0,'11111222,11111222,11144222' 
FIT,ioos:station:wmo:SIPF1:1,2017-10-05T00:15:00Z,27.8620,-80.4450,1.0,13.5,78.0,99.0,'11111222,11111222,11144222' 
FIT,ioos:station:wmo:SIPF1:1,2017-10-05T00:30:00Z,27.8620,-80.4450,1.0,12.0,66.0,99.0,'11111222,11111222,11144222' 
FIT,ioos:station:wmo:SIPF1:1,2017-10-05T00:45:00Z,27.8620,-80.4450,1.0,12.9,69.0,99.0,'11111222,11111222,11144222' 
FIT,ioos:station:wmo:SIPF1:1,2017-10-05T01:00:00Z,27.8620,-80.4450,1.0,13.9,63.0,99.0,'11111222,11111222,11144222' 
FIT,ioos:station:wmo:SIPF1:1,2017-10-05T01:15:00Z,27.8620,-80.4450,1.0,14.3,57.0,99.0,'11111222,11111222,11144222' 
FIT,ioos:station:wmo:SIPF1:1,2017-10-05T01:30:00Z,27.8620,-80.4450,1.0,14.5,50.0,99.0,'11111222,11111222,11144222' 
FIT,ioos:station:wmo:SIPF1:1,2017-10-05T01:45:00Z,27.8620,-80.4450,1.0,12.5,48.0,99.0,'11111222,11111222,11144222' 
FIT,ioos:station:wmo:SIPF1:1,2017-10-05T02:00:00Z,27.8620,-80.4450,1.0,12.1,54.0,99.0,'11111222,11111222,11144222' 
FIT,ioos:station:wmo:SIPF1:1,2017-10-05T02:15:00Z,27.8620,-80.4450,1.0,11.0,51.0,99.0,'11111222,11111222,11144222' 
FIT,ioos:station:wmo:SIPF1:1,2017-10-05T02:30:00Z,27.8620,-80.4450,1.0,10.8,58.0,99.0,'11111222,11111222,11144222' 
FIT,ioos:station:wmo:SIPF1:1,2017-10-05T02:45:00Z,27.8620,-80.4450,1.0,11.0,62.0,99.0,'11111222,11111222,11144222' 
FIT,ioos:station:wmo:SIPF1:1,2017-10-05T03:00:00Z,27.8620,-80.4450,1.0,9.2,59.0,99.0,'11111222,11111222,11144222' 
FIT,ioos:station:wmo:SIPF1:1,2017-10-05T03:15:00Z,27.8620,-80.4450,1.0,10.1,55.0,99.0,'11111222,11111222,11144222' 
FIT,ioos:station:wmo:SIPF1:1,2017-10-05T03:30:00Z,27.8620,-80.4450,1.0,12.9,59.0,99.0,'11111222,11111222,11144222' 
FIT,ioos:station:wmo:SIPF1:1,2017-10-05T03:45:00Z,27.8620,-80.4450,1.0,13.0,59.0,99.0,'11111222,11111222,11144222' 
FIT,ioos:station:wmo:SIPF1:1,2017-10-05T04:00:00Z,27.8620,-80.4450,1.0,12.0,60.0,99.0,'11111222,11111222,11144222' 
FIT,ioos:station:wmo:SIPF1:1,2017-10-05T04:15:00Z,27.8620,-80.4450,1.0,12.3,53.0,99.0,'11111222,11111222,11144222' 
FIT,ioos:station:wmo:SIPF1:1,2017-10-05T04:30:00Z,27.8620,-80.4450,1.0,12.2,56.0,99.0,'11111222,11111222,11144222' 
FIT,ioos:station:wmo:SIPF1:1,2017-10-05T04:45:00Z,27.8620,-80.4450,1.0,11.7,56.0,99.0,'11111222,11111222,11144222' 
FIT,ioos:station:wmo:SIPF1:1,2017-10-05T05:00:00Z,27.8620,-80.4450,1.0,10.7,62.0,99.0,'11111222,11111222,11144222' 
FIT,ioos:station:wmo:SIPF1:1,2017-10-05T05:15:00Z,27.8620,-80.4450,1.0,11.2,64.0,99.0,'11111222,11111222,11144222' 
FIT,ioos:station:wmo:SIPF1:1,2017-10-05T05:30:00Z,27.8620,-80.4450,1.0,11.8,65.0,99.0,'11111222,11111222,11144222' 
FIT,ioos:station:wmo:SIPF1:1,2017-10-05T05:45:00Z,27.8620,-80.4450,1.0,11.0,57.0,99.0,'11111222,11111222,11144222' 
FIT,ioos:station:wmo:SIPF1:1,2017-10-05T06:00:00Z,27.8620,-80.4450,1.0,11.6,56.0,99.0,'11111222,11111222,11144222' 
FIT,ioos:station:wmo:SIPF1:1,2017-10-05T06:15:00Z,27.8620,-80.4450,1.0,11.4,66.0,99.0,'11111222,11111222,11144222' 
FIT,ioos:station:wmo:SIPF1:1,2017-10-05T06:30:00Z,27.8620,-80.4450,1.0,10.6,64.0,99.0,'11111222,11111222,11144222' 
FIT,ioos:station:wmo:SIPF1:1,2017-10-05T06:45:00Z,27.8620,-80.4450,1.0,10.5,65.0,99.0,'11111222,11111222,11144222' 
FIT,ioos:station:wmo:SIPF1:1,2017-10-05T07:00:00Z,27.8620,-80.4450,1.0,10.3,65.0,99.0,'11111222,11111222,11144222' 
FIT,ioos:station:wmo:SIPF1:1,2017-10-05T07:15:00Z,27.8620,-80.4450,1.0,10.1,67.0,99.0,'11111222,11111222,11144222' 
FIT,ioos:station:wmo:SIPF1:1,2017-10-05T07:30:00Z,27.8620,-80.4450,1.0,10.7,67.0,99.0,'11111222,11111222,11144222' 
FIT,ioos:station:wmo:SIPF1:1,2017-10-05T08:00:00Z,27.8620,-80.4450,1.0,10.1,67.0,99.0,'11111222,11111222,11144222' 
FIT,ioos:station:wmo:SIPF1:1,2017-10-05T08:15:00Z,27.8620,-80.4450,1.0,11.1,57.0,99.0,'11111222,11111222,11144222' 
FIT,ioos:station:wmo:SIPF1:1,2017-10-05T08:30:00Z,27.8620,-80.4450,1.0,11.4,62.0,99.0,'11111222,11111222,11144222' 
FIT,ioos:station:wmo:SIPF1:1,2017-10-05T08:45:00Z,27.8620,-80.4450,1.0,11.9,64.0,99.0,'11111222,11111222,11144222' 
FIT,ioos:station:wmo:SIPF1:1,2017-10-05T09:00:00Z,27.8620,-80.4450,1.0,11.7,71.0,99.0,'11111222,11111222,11144222' 
FIT,ioos:station:wmo:SIPF1:1,2017-10-05T09:15:00Z,27.8620,-80.4450,1.0,10.4,57.0,99.0,'11111222,11111222,11144222' 
FIT,ioos:station:wmo:SIPF1:1,2017-10-05T09:30:00Z,27.8620,-80.4450,1.0,10.4,58.0,99.0,'11111222,11111222,11144222' 
FIT,ioos:station:wmo:SIPF1:1,2017-10-05T09:45:00Z,27.8620,-80.4450,1.0,11.1,87.0,99.0,'11111222,11111222,11144222' 
FIT,ioos:station:wmo:SIPF1:1,2017-10-05T10:00:00Z,27.8620,-80.4450,1.0,8.5,111.0,99.0,'11111222,11111222,11144222' 
FIT,ioos:station:wmo:SIPF1:1,2017-10-05T10:15:00Z,27.8620,-80.4450,1.0,8.3,105.0,99.0,'11111222,11111222,11144222' 
FIT,ioos:station:wmo:SIPF1:1,2017-10-05T10:30:00Z,27.8620,-80.4450,1.0,8.6,102.0,99.0,'11111222,11111222,11144222' 
FIT,ioos:station:wmo:SIPF1:1,2017-10-05T10:45:00Z,27.8620,-80.4450,1.0,7.6,100.0,99.0,'11111222,11111222,11144222' 
FIT,ioos:station:wmo:SIPF1:1,2017-10-05T11:00:00Z,27.8620,-80.4450,1.0,9.4,94.0,99.0,'11111222,11111222,11144222' 
FIT,ioos:station:wmo:SIPF1:1,2017-10-05T11:15:00Z,27.8620,-80.4450,1.0,9.7,89.0,99.0,'11111222,11111222,11144222' 
FIT,ioos:station:wmo:SIPF1:1,2017-10-05T11:30:00Z,27.8620,-80.4450,1.0,9.7,92.0,99.0,'11111222,11111222,11144222' 
FIT,ioos:station:wmo:SIPF1:1,2017-10-05T11:45:00Z,27.8620,-80.4450,1.0,10.5,90.0,99.0,'11111222,11111222,11144222' 
FIT,ioos:station:wmo:SIPF1:1,2017-10-05T12:00:00Z,27.8620,-80.4450,1.0,10.7,82.0,99.0,'11111222,11111222,11144222' 
FIT,ioos:station:wmo:SIPF1:1,2017-10-05T12:15:00Z,27.8620,-80.4450,1.0,10.5,86.0,99.0,'11111222,11111222,11144222' 
FIT,ioos:station:wmo:SIPF1:1,2017-10-05T12:30:00Z,27.8620,-80.4450,1.0,10.2,87.0,99.0,'11111222,11111222,11144222' 
FIT,ioos:station:wmo:SIPF1:1,2017-10-05T12:45:00Z,27.8620,-80.4450,1.0,10.2,90.0,99.0,'11111222,11111222,11144222' 
FIT,ioos:station:wmo:SIPF1:1,2017-10-05T13:00:00Z,27.8620,-80.4450,1.0,10.0,90.0,99.0,'11111222,11111222,11144222' 
FIT,ioos:station:wmo:SIPF1:1,2017-10-05T13:15:00Z,27.8620,-80.4450,1.0,9.7,88.0,99.0,'11111222,11111222,11144222' 
FIT,ioos:station:wmo:SIPF1:1,2017-10-05T13:30:00Z,27.8620,-80.4450,1.0,10.0,82.0,99.0,'11111222,11111222,11144222' 
FIT,ioos:station:wmo:SIPF1:1,2017-10-05T13:45:00Z,27.8620,-80.4450,1.0,10.7,84.0,99.0,'11111222,11111222,11144222' 
FIT,ioos:station:wmo:SIPF1:1,2017-10-05T14:00:00Z,27.8620,-80.4450,1.0,12.0,93.0,99.0,'11111222,11111222,11144222' 
FIT,ioos:station:wmo:SIPF1:1,2017-10-05T14:15:00Z,27.8620,-80.4450,1.0,12.6,116.0,99.0,'11111222,11111222,11144222' 
FIT,ioos:station:wmo:SIPF1:1,2017-10-05T14:30:00Z,27.8620,-80.4450,1.0,11.4,110.0,99.0,'11111222,11111222,11144222' 
FIT,ioos:station:wmo:SIPF1:1,2017-10-05T14:45:00Z,27.8620,-80.4450,1.0,10.5,119.0,99.0,'11111222,11111222,11144222' 
FIT,ioos:station:wmo:SIPF1:1,2017-10-05T15:00:00Z,27.8620,-80.4450,1.0,10.2,106.0,99.0,'11111222,11111222,11144222' 
FIT,ioos:station:wmo:SIPF1:1,2017-10-05T15:15:00Z,27.8620,-80.4450,1.0,10.2,95.0,99.0,'11111222,11111222,11144222' 
FIT,ioos:station:wmo:SIPF1:1,2017-10-05T15:30:00Z,27.8620,-80.4450,1.0,10.8,84.0,99.0,'11111222,11111222,11144222' 
FIT,ioos:station:wmo:SIPF1:1,2017-10-05T15:45:00Z,27.8620,-80.4450,1.0,11.1,86.0,99.0,'11111222,11111222,11144222' 
FIT,ioos:station:wmo:SIPF1:1,2017-10-05T16:00:00Z,27.8620,-80.4450,1.0,11.1,80.0,99.0,'11111222,11111222,11144222' 
FIT,ioos:station:wmo:SIPF1:1,2017-10-05T16:15:00Z,27.8620,-80.4450,1.0,10.5,79.0,99.0,'11111222,11111222,11144222' 
FIT,ioos:station:wmo:SIPF1:1,2017-10-05T16:30:00Z,27.8620,-80.4450,1.0,10.4,73.0,99.0,'11111222,11111222,11144222' 
FIT,ioos:station:wmo:SIPF1:1,2017-10-05T16:45:00Z,27.8620,-80.4450,1.0,9.5,74.0,99.0,'11111222,11111222,11144222' 
FIT,ioos:station:wmo:SIPF1:1,2017-10-05T17:00:00Z,27.8620,-80.4450,1.0,8.6,79.0,99.0,'11111222,11111222,11144222' 
FIT,ioos:station:wmo:SIPF1:1,2017-10-05T17:15:00Z,27.8620,-80.4450,1.0,9.0,77.0,99.0,'11111222,11111222,11144222' 
FIT,ioos:station:wmo:SIPF1:1,2017-10-05T17:30:00Z,27.8620,-80.4450,1.0,9.0,80.0,99.0,'11111222,11111222,11144222' 
FIT,ioos:station:wmo:SIPF1:1,2017-10-05T17:45:00Z,27.8620,-80.4450,1.0,8.3,79.0,99.0,'11111222,11111222,11144222' 
FIT,ioos:station:wmo:SIPF1:1,2017-10-05T18:00:00Z,27.8620,-80.4450,1.0,7.8,86.0,99.0,'11111222,11111222,11144222' 